TimeEST,TemperatureF,Dew PointF,Humidity,Sea Level PressureIn,VisibilityMPH,Wind Direction,Wind SpeedMPH,Gust SpeedMPH,PrecipitationIn,Events,Conditions,WindDirDegrees,DateUTC
12:15 AM,32.5,27.3,81,30.35,10.0,North,6.9,-,N/A,,Mostly Cloudy,360,2013-02-09 05:15:00
12:35 AM,30.2,23.4,76,30.36,10.0,NNE,6.9,-,N/A,,Scattered Clouds,30,2013-02-09 05:35:00
12:55 AM,28.9,22.6,77,30.37,10.0,NNE,5.8,-,N/A,,Clear,20,2013-02-09 05:55:00
1:15 AM,27.9,21.7,78,30.37,10.0,North,4.6,-,N/A,,Clear,10,2013-02-09 06:15:00
1:35 AM,27.9,21.9,78,30.37,10.0,North,3.5,-,N/A,,Clear,10,2013-02-09 06:35:00
1:55 AM,27.9,22.1,79,30.37,10.0,North,4.6,-,N/A,,Clear,10,2013-02-09 06:55:00
2:15 AM,27.9,22.6,81,30.37,10.0,NNE,3.5,-,N/A,,Clear,30,2013-02-09 07:15:00
2:35 AM,27.9,22.6,81,30.38,10.0,Calm,Calm,-,N/A,,Clear,0,2013-02-09 07:35:00
2:55 AM,27.9,24.3,86,30.39,10.0,Calm,Calm,-,N/A,,Clear,0,2013-02-09 07:55:00
3:15 AM,27.9,23.9,85,30.39,10.0,Calm,Calm,-,N/A,,Clear,0,2013-02-09 08:15:00
3:35 AM,25.3,23.0,91,30.40,10.0,Calm,Calm,-,N/A,,Clear,0,2013-02-09 08:35:00
3:55 AM,24.4,22.6,93,30.39,10.0,Calm,Calm,-,N/A,,Clear,0,2013-02-09 08:55:00
4:15 AM,22.8,21.9,96,30.40,10.0,Calm,Calm,-,N/A,,Clear,0,2013-02-09 09:15:00
4:35 AM,22.8,22.1,97,30.38,10.0,Calm,Calm,-,N/A,,Clear,0,2013-02-09 09:35:00
4:55 AM,22.8,22.1,97,30.38,10.0,Calm,Calm,-,N/A,,Clear,0,2013-02-09 09:55:00
5:15 AM,21.9,21.4,98,30.39,10.0,Calm,Calm,-,N/A,,Clear,0,2013-02-09 10:15:00
5:35 AM,21.4,21.0,99,30.39,10.0,Calm,Calm,-,N/A,,Clear,0,2013-02-09 10:35:00
5:55 AM,20.7,20.5,99,30.40,10.0,North,3.5,-,N/A,,Clear,360,2013-02-09 10:55:00
6:15 AM,20.3,20.1,99,30.40,10.0,Calm,Calm,-,N/A,,Clear,0,2013-02-09 11:15:00
6:35 AM,20.3,20.1,99,30.41,10.0,Calm,Calm,-,N/A,,Clear,0,2013-02-09 11:35:00
6:55 AM,20.3,20.3,100,30.42,10.0,Calm,Calm,-,N/A,,Clear,0,2013-02-09 11:55:00
7:15 AM,20.3,20.3,100,30.42,10.0,Calm,Calm,-,N/A,,Clear,0,2013-02-09 12:15:00
7:35 AM,20.3,20.3,100,30.43,10.0,North,3.5,-,N/A,,Clear,10,2013-02-09 12:35:00
7:55 AM,20.3,20.3,100,30.44,10.0,Calm,Calm,-,N/A,,Clear,0,2013-02-09 12:55:00
8:15 AM,20.7,20.5,99,30.45,10.0,Calm,Calm,-,N/A,,Clear,0,2013-02-09 13:15:00
8:35 AM,23.0,22.8,99,30.44,7.0,East,3.5,-,N/A,,Clear,90,2013-02-09 13:35:00
8:55 AM,25.3,24.6,97,30.45,10.0,Calm,Calm,-,N/A,,Clear,0,2013-02-09 13:55:00
9:15 AM,27.9,25.5,91,30.44,10.0,ENE,3.5,-,N/A,,Clear,60,2013-02-09 14:15:00
9:35 AM,27.9,24.6,88,30.44,10.0,East,3.5,-,N/A,,Clear,80,2013-02-09 14:35:00
9:55 AM,28.2,22.1,78,30.44,10.0,East,4.6,-,N/A,,Clear,90,2013-02-09 14:55:00
10:15 AM,30.2,22.5,73,30.45,10.0,Calm,Calm,-,N/A,,Clear,0,2013-02-09 15:15:00
10:35 AM,29.8,22.5,74,30.44,10.0,Calm,Calm,-,N/A,,Clear,0,2013-02-09 15:35:00
10:55 AM,32.5,23.9,70,30.43,10.0,ENE,3.5,-,N/A,,Clear,60,2013-02-09 15:55:00
11:15 AM,32.5,23.4,69,30.43,10.0,NE,3.5,-,N/A,,Clear,40,2013-02-09 16:15:00
11:35 AM,32.5,23.4,69,30.43,10.0,Calm,Calm,-,N/A,,Clear,0,2013-02-09 16:35:00
11:55 AM,32.5,22.3,66,30.43,10.0,NNE,5.8,-,N/A,,Clear,20,2013-02-09 16:55:00
12:15 PM,33.4,22.6,65,30.42,10.0,ENE,5.8,-,N/A,,Clear,70,2013-02-09 17:15:00
12:35 PM,35.1,23.4,62,30.41,10.0,Calm,Calm,-,N/A,,Clear,0,2013-02-09 17:35:00
12:55 PM,35.1,22.6,61,30.40,10.0,Calm,Calm,-,N/A,,Clear,0,2013-02-09 17:55:00
1:15 PM,37.6,23.4,57,30.40,10.0,SE,4.6,-,N/A,,Clear,130,2013-02-09 18:15:00
1:35 PM,36.1,22.8,58,30.39,10.0,East,4.6,-,N/A,,Clear,80,2013-02-09 18:35:00
1:55 PM,37.6,21.4,52,30.38,10.0,ESE,4.6,-,N/A,,Clear,110,2013-02-09 18:55:00
2:15 PM,37.6,21.0,51,30.37,10.0,Calm,Calm,-,N/A,,Clear,0,2013-02-09 19:15:00
2:35 PM,37.6,20.5,50,30.36,10.0,Calm,Calm,-,N/A,,Clear,0,2013-02-09 19:35:00
2:55 PM,38.1,22.1,53,30.36,10.0,SSE,6.9,-,N/A,,Clear,150,2013-02-09 19:55:00
3:15 PM,39.4,21.7,49,30.34,10.0,East,4.6,-,N/A,,Clear,90,2013-02-09 20:15:00
3:55 PM,38.8,19.8,46,30.34,10.0,SE,3.5,-,N/A,,Clear,140,2013-02-09 20:55:00
4:15 PM,39.6,21.9,49,30.34,10.0,East,5.8,-,N/A,,Clear,90,2013-02-09 21:15:00
4:35 PM,39.4,22.5,51,30.33,10.0,East,3.5,-,N/A,,Clear,100,2013-02-09 21:35:00
4:55 PM,39.2,21.9,50,30.33,10.0,East,5.8,-,N/A,,Clear,100,2013-02-09 21:55:00
5:15 PM,37.6,23.4,57,30.32,10.0,ESE,5.8,-,N/A,,Clear,120,2013-02-09 22:15:00
5:35 PM,37.6,23.0,56,30.32,10.0,ESE,5.8,-,N/A,,Clear,120,2013-02-09 22:35:00
5:55 PM,37.6,22.1,54,30.32,10.0,ESE,4.6,-,N/A,,Clear,120,2013-02-09 22:55:00
6:15 PM,36.0,21.2,55,30.32,10.0,SE,5.8,-,N/A,,Clear,130,2013-02-09 23:15:00
6:35 PM,35.1,21.6,58,30.32,10.0,ESE,3.5,-,N/A,,Clear,110,2013-02-09 23:35:00
6:55 PM,35.1,22.8,61,30.32,10.0,ESE,4.6,-,N/A,,Clear,110,2013-02-09 23:55:00
7:15 PM,33.4,23.0,66,30.32,10.0,Calm,Calm,-,N/A,,Clear,0,2013-02-10 00:15:00
7:35 PM,34.5,25.0,68,30.31,10.0,Calm,Calm,-,N/A,,Clear,0,2013-02-10 00:35:00
7:55 PM,32.0,26.2,79,30.31,10.0,Calm,Calm,-,N/A,,Clear,0,2013-02-10 00:55:00
8:35 PM,29.1,26.2,89,30.31,10.0,Calm,Calm,-,N/A,,Clear,0,2013-02-10 01:35:00
8:55 PM,28.2,24.8,87,30.29,10.0,Calm,Calm,-,N/A,,Clear,0,2013-02-10 01:55:00
9:15 PM,29.1,25.5,86,30.29,10.0,ENE,5.8,-,N/A,,Clear,70,2013-02-10 02:15:00
9:35 PM,29.1,25.5,86,30.29,10.0,ENE,3.5,-,N/A,,Clear,60,2013-02-10 02:35:00
9:55 PM,30.2,26.6,86,30.29,10.0,NNE,3.5,-,N/A,,Clear,30,2013-02-10 02:55:00
10:15 PM,27.9,26.4,94,30.28,10.0,NNE,4.6,-,N/A,,Clear,30,2013-02-10 03:15:00
10:35 PM,27.9,25.9,92,30.28,10.0,NNE,5.8,-,N/A,,Clear,30,2013-02-10 03:35:00
10:55 PM,27.9,26.2,94,30.28,10.0,North,3.5,-,N/A,,Clear,10,2013-02-10 03:55:00
11:15 PM,27.9,26.6,95,30.27,10.0,Calm,Calm,-,N/A,,Clear,0,2013-02-10 04:15:00
11:35 PM,27.9,26.8,96,30.26,10.0,Calm,Calm,-,N/A,,Clear,0,2013-02-10 04:35:00
11:55 PM,27.9,27.0,96,30.26,10.0,Calm,Calm,-,N/A,,Clear,0,2013-02-10 04:55:00